Location: Unspecified
(32.8157°N, 0.0000°E)
Time: 03:33:16
(UTC+00:00)

Envisat - Visible Passes

Search period start: 20 June 2019 00:00
Search period end: 30 June 2019 00:00
Orbit: 764 x 766 km, 98.1° (Epoch: 19 June)

Date Brightness Start Highest point End Pass type
(mag) Time Alt. Az. Time Alt. Az. Time Alt. Az.
20 Jun 5.6 19:37:23 10° SW 19:40:49 18° W 19:44:17 10° NW visible
25 Jun 5.9 19:53:11 10° WSW 19:55:14 12° W 19:57:18 10° WNW visible
28 Jun 5.7 19:40:46 10° SW 19:43:54 16° W 19:47:03 10° NW visible
